EW8311 Weather Reports


time (UTC)temp
F
wind
direction
speed
knots
gust
knots
rain 1hr
in
rain 24hr
in
rain mn
in
humidity
%
barometer
mb
20260505223028 73 310 3.5 10.4 0.00 0.53 0.21 32 1005.1
20260505221528 74 302 4.3 8.7 0.00 0.53 0.21 33 1005.2
20260505220027 73 300 8.7 15.6 0.00 0.53 0.21 31 1005.2
20260505214527 74 298 8.7 13.0 0.00 0.53 0.21 32 1005.4
20260505213025 72 307 7.8 17.4 0.00 0.53 0.21 35 1005.4
20260505211527 72 249 5.2 12.2 0.00 0.53 0.21 37 1005.7
20260505210018 73 325 7.8 15.6 0.00 0.53 0.21 37 1005.7
20260505204515 71 316 5.2 14.8 0.00 0.53 0.21 40 1005.6
20260505203014 71 315 6.1 10.4 0.00 0.53 0.21 42 1005.8
20260505201511 68 316 2.6 7.0 0.00 0.53 0.21 52 1006.0
20260505200011 69 295 1.7 8.7 0.00 0.53 0.21 52 1006.1
20260505194509 70 299 5.2 8.7 0.00 0.53 0.21 50 1005.9
20260505193007 70 259 1.7 7.0 0.00 0.53 0.21 54 1006.2
20260505191505 68 314 3.5 7.0 0.00 0.53 0.21 55 1006.4
20260505190004 68 328 3.5 6.1 0.00 0.53 0.21 57 1006.6
20260505184505 69 340 1.7 4.3 0.00 0.53 0.21 59 1006.8
20260505183100 67 324 2.6 6.1 0.00 0.53 0.21 59 1006.8
20260505181559 67 262 0.9 3.5 0.00 0.53 0.21 58 1007.0
20260505180100 67 311 0.0 3.5 0.00 0.53 0.21 59 1007.2
20260505174555 65 316 1.7 7.8 0.00 0.53 0.21 61 1007.2
20260505173111 66 118 0.0 2.6 0.00 0.53 0.21 62 1007.2
20260505171605 64 246 0.0 2.6 0.00 0.53 0.21 65 1007.3
20260505170045 63 326 1.7 3.5 0.00 0.53 0.21 68 1007.1
20260505164543 63 271 0.9 3.5 0.00 0.53 0.21 73 1007.1
20260505163039 62 300 0.9 1.7 0.00 0.53 0.21 77 1007.3
20260505161539 61 326 1.7 3.5 0.00 0.53 0.21 76 1007.3
20260505153033 60 300 0.0 1.7 0.00 0.53 0.21 87 1006.9
20260505151534 60 224 0.0 0.0 0.00 0.53 0.21 89 1006.8
20260505124520 57 118 0.0 0.9 0.02 0.53 0.21 92 1005.9
20260505123017 57 118 0.0 0.0 0.02 0.53 0.21 91 1005.6
20260505121529 57 118 0.0 0.0 0.01 0.52 0.20 91 1005.2
20260505120015 57 118 0.0 0.9 0.01 0.51 0.19 90 1005.1
20260505114515 57 118 0.0 2.6 0.01 0.51 0.19 88 1005.2
20260505113013 57 321 0.9 3.5 0.02 0.51 0.19 88 1005.5
20260505111511 57 321 0.9 3.5 0.03 0.51 0.19 89 1005.1
20260505101504 56 325 1.7 2.6 0.04 0.48 0.16 92 1006.5
20260505100008 57 103 0.0 1.7 0.05 0.48 0.16 91 1006.9
20260505094500 57 103 0.0 0.9 0.06 0.48 0.16 91 1006.3
20260505093058 57 106 0.0 1.7 0.05 0.46 0.14 92 1007.5
20260505091617 57 103 0.0 3.5 0.04 0.44 0.12 92 1007.3
20260505090101 57 113 0.9 4.3 0.05 0.43 0.11 92 1007.7
20260505084552 58 114 0.9 1.7 0.06 0.42 0.10 91 1008.0
20260505083052 58 111 0.0 0.9 0.06 0.41 0.09 91 1008.4
20260505081549 58 113 0.0 1.7 0.06 0.39 0.07 91 1008.6
20260505080051 58 322 0.0 0.9 0.06 0.38 0.06 90 1008.9
20260505074545 58 322 0.0 1.7 0.04 0.36 0.04 89 1009.2
20260505073055 58 318 0.0 1.7 0.05 0.35 0.03 88 1009.0
20260505071545 58 314 0.0 0.9 0.05 0.33 0.01 88 1009.0
20260505070040 58 314 0.0 2.6 0.05 0.32 0.00 88 1008.6
20260505064537 58 328 0.0 1.7 0.06 0.32 0.32 88 1008.5
20260505063046 58 331 0.9 3.5 0.06 0.30 0.30 87 1008.4
20260505061539 58 322 0.9 2.6 0.05 0.28 0.28 88 1008.7
20260505060035 58 119 0.0 1.7 0.04 0.27 0.27 88 1008.5
20260505054543 59 119 0.0 0.9 0.04 0.26 0.26 88 1008.2
20260505053034 59 119 0.0 0.9 0.03 0.24 0.24 86 1008.6
20260505051539 59 332 0.0 0.0 0.02 0.23 0.23 84 1008.4
20260505041542 60 300 0.0 1.7 0.00 0.21 0.21 77 1008.3
20260505040026 60 310 1.7 3.5 0.02 0.21 0.21 74 1008.1
20260505034524 59 332 1.7 6.1 0.04 0.21 0.21 74 1007.7
20260505033025 58 314 0.0 5.2 0.05 0.21 0.21 80 1007.3
20260505031530 57 103 0.0 3.5 0.07 0.21 0.21 80 1007.7
20260505030023 57 307 0.9 4.3 0.06 0.18 0.18 76 1008.5
20260505024521 57 353 1.7 5.2 0.07 0.17 0.17 78 1008.3
20260505023019 57 320 0.9 7.0 0.07 0.16 0.16 79 1008.5
20260505021517 58 304 0.0 6.1 0.06 0.14 0.14 74 1008.4
20260505020013 59 288 2.6 7.8 0.05 0.12 0.12 68 1008.1
20260505014515 60 319 2.6 9.6 0.04 0.10 0.10 68 1007.9
20260505013006 61 309 2.6 8.7 0.04 0.09 0.09 68 1007.2
20260505011503 61 319 1.7 4.3 0.05 0.08 0.08 63 1006.7
20260505010006 62 319 1.7 3.5 0.04 0.07 0.07 64 1006.7
20260505004600 62 315 1.7 7.0 0.03 0.06 0.06 62 1006.8
20260505003114 63 327 3.5 7.8 0.04 0.05 0.05 62 1006.7
20260505001558 64 314 2.6 7.8 0.03 0.03 0.03 57 1006.2
20260504234555 63 322 2.6 11.3 0.03 0.03 0.03 61 1005.9
20260504233055 68 335 7.0 13.9 0.00 0.00 0.00 46 1006.6
20260504231550 74 319 7.8 20.9 0.00 0.00 0.00 28 1006.0
20260504230108 75 328 8.7 13.9 0.00 0.00 0.00 25 1005.7
20260504224600 76 321 7.0 12.2 0.00 0.00 0.00 22 1005.5